Погода в Яблонове

Россия / Белгородская область     50°51′11″N   37°21′13″E
темп.,
°C
ветер,
м/с
пор.,
м/с
влажн.,
%
обл.,
%
осадки,
мм/ч
давл.,
гПа
погр.,
м
14 апреля, ср
ср1400:00+11ююз368465 0.0 1021215
03:00+10ю128693 0.0 102151
06:00+9св118999 0.0 102010
09:00+12всв2376100 0.1 1019332
12:00+16всв235432 0.1 10171187
15:00+18юв5738100 0.1 10151972
18:00+16юв5946100 0.1 1014467
21:00+13ю336088 0.1 101464
15 апреля, чт
чт1500:00+11ю1170100 0.0 101410
03:00+10юз358896 0.0 1014122
06:00+8юз359269 0.0 1014137
09:00+12ююз456813 0.0 1015596
12:00+14ю565350 0.0 10141397
15:00+14ю565530 0.0 10141332
18:00+14ююв46605 0.2 10131033
21:00+11ююз4978100 1.1 1014411
16 апреля, пт
пт1600:00+9юв22875 0.0 101426
03:00+7ююв37920 0.0 1015155
06:00+6ююв36905 0.0 1015133
09:00+10ююв58705 0.0 1016750
12:00+13ю685252 0.0 10161818
15:00+13ююз565388 0.1 10161303
18:00+12ю245892 0.0 1016900
21:00+10юз357286 0.1 1017272
17 апреля, сб
сб1700:00+8юз128291 0.1 101850
03:00+8ююз248288 0.3 1018154
06:00+6юз229210 0.0 101955
09:00+9юз227557 0.1 1020667
12:00+12зюз4359100 0.1 10191340
15:00+12зюз5459100 0.3 10201188
18:00+11зюз4563100 0.3 1019901
21:00+9юз3677100 0.3 1020199
18 апреля, вс
вс1800:00+8зюз2481100 0.1 1020145
03:00+8зсз2588100 0.7 1020243
06:00+8с2491100 0.6 1020238
09:00+9св458683 0.8 1020374
12:00+12св556299 0.3 10211282
15:00+12всв556270 0.4 10221063
18:00+12всв4663100 0.0 10231029
21:00+8вюв368531 0.1 1025224